Temperature
21 20 20 20 20 19 19 19 18 18 18 18 18 18 17 17 17 17 17 17 17 17 17 17 17 17 16 16 16 16 16 16 16 16 15 15 14 14 14 14 14 14 14
20 20 20 20 19 19 19 19 19 18 18 18 18 18 17 17 17 17 17 17 17 17 17 17 17 16 16 16 16 16 16 16 15 15 15 15 14 14 14 14 14 14 14
20 19 19 19 19 19 19 18 18 18 18 18 18 17 17 17 17 17 17 17 17 17 17 17 17 16 16 16 16 16 16 15 15 15 15 14 14 14 14 14 13 13 13
19 19 19 19 19 18 18 18 18 18 18 17 17 17 17 17 17 16 16 16 16 16 16 17 17 16 16 16 16 16 15 15 15 15 15 15 14 14 14 14 13 13 13
19 19 19 19 18 18 18 18 18 18 17 17 17 17 17 17 16 16 16 16 16 16 16 16 16 16 16 16 16 15 15 15 15 15 15 15 14 14 14 13 13 13 13
18 18 18 18 18 18 18 18 17 17 17 17 17 17 16 16 16 16 16 16 16 16 16 16 16 16 16 16 16 15 15 15 15 15 15 14 14 14 13 13 13 13 13
18 18 18 18 18 18 17 17 17 17 17 17 17 17 16 17 16 16 16 16 16 16 15 15 15 16 16 15 15 15 15 15 15 14 14 14 14 13 13 13 13 13 12
17 17 17 18 17 17 17 17 17 16 16 16 16 16 16 16 16 16 16 15 15 15 15 15 15 15 15 15 15 14 14 14 14 14 14 14 13 13 13 13 13 12 12
17 17 17 17 17 17 17 17 16 16 16 16 16 16 16 16 16 16 16 15 15 15 15 15 15 15 15 15 14 14 14 14 14 14 14 13 13 13 13 12 12 12 12
17 17 17 17 16 16 16 16 16 16 16 16 16 16 16 16 16 16 15 15 14 14 14 14 14 14 14 14 14 13 13 13 13 13 13 13 13 13 13 12 12 12 12
16 16 16 16 16 16 16 16 16 15 15 15 15 15 15 15 15 15 15 15 14 14 14 14 14 14 14 14 14 13 13 13 13 13 13 13 12 12 12 12 12 12 12
16 15 16 16 16 15 15 15 15 15 15 15 15 15 15 15 15 14 14 14 14 14 14 14 13 14 14 13 13 13 13 13 12 12 12 12 12 12 12 12 12 11 11
15 15 15 15 15 15 15 15 15 15 15 15 14 14 14 14 14 14 14 14 14 14 13 13 13 13 13 13 13 12 12 12 12 12 12 12 12 12 11 11 11 11 11
15 15 14 14 14 14 14 14 14 14 14 14 14 14 14 13 13 14 13 13 13 13 13 13 13 13 12 12 12 12 12 12 12 12 11 11 11 11 11 11 11 11 11
14 14 14 14 14 14 14 14 14 14 14 14 13 13 13 13 13 13 13 13 13 12 12 12 12 12 11 11 11 11 11 11 11 11 11 11 11 11 11 10 10 10 10
13 14 14 14 13 13 13 13 13 13 13 13 13 13 12 12 12 12 12 12 12 12 12 11 11 11 11 11 11 11 10 11 11 11 11 11 10 10 10 10 10 10 10
13 13 13 13 13 13 13 13 13 12 13 13 13 12 12 12 12 12 12 12 11 11 11 11 11 11 11 10 10 10 10 10 10 10 10 10 10 10 10 10 10 10 10
12 12 13 13 13 13 12 12 12 12 12 12 12 12 12 11 11 11 11 11 11 10 10 10 10 10 10 10 10 10 10 9 9 9 9 9 9 9 9 9 9 9 9
12 12 12 12 12 12 12 12 12 12 12 12 11 11 11 11 11 11 11 10 10 10 10 10 10 10 10 9 9 9 9 9 9 9 9 9 9 9 9 9 9 9 9
12 12 12 12 12 12 12 12 12 11 11 11 11 11 11 10 10 10 10 10 10 10 10 10 9 9 9 9 9 9 9 8 8 8 8 8 8 8 8 8 9 9 9
11 11 11 11 11 11 11 11 11 11 11 11 10 10 10 10 10 10 10 10 10 9 9 9 9 9 9 8 8 8 8 8 8 8 8 8 8 8 8 8 8 8 8
11 11 11 11 11 11 11 11 11 11 10 10 10 10 10 10 10 10 10 10 9 9 9 9 9 8 8 8 8 8 8 8 8 8 8 8 8 8 8 8 8 8 8
10 11 10 10 10 10 10 10 10 10 10 10 10 10 10 10 10 9 9 9 9 9 8 8 8 8 8 7 7 7 8 8 8 8 8 8 8 8 8 8 8 8 8
10 10 10 10 10 10 10 10 10 10 10 10 10 10 10 9 9 9 9 9 9 9 8 8 8 8 7 7 7 7 7 7 7 7 7 7 7 7 7 7 7 7 7
10 10 10 10 10 10 10 10 10 10 10 10 10 9 9 9 9 9 9 9 8 8 8 8 7 7 7 7 7 7 7 7 7 7 7 7 7 7 7 7 7 7 7
10 10 10 10 10 10 10 10 10 10 10 9 9 9 9 9 9 9 8 8 8 8 8 7 7 7 7 6 6 7 7 7 7 6 6 6 6 6 6 6 6 6 6
Wind_Speed
9 9 8 7 7 6 6 6 6 6 6 6 6 6 6 7 6 6 7 7 8 7 7 7 7 6 5 5 5 5 5 5 6 4 3 3 3 4 2 3 4 4 4
9 9 8 7 7 7 6 6 6 6 6 7 7 7 7 7 7 7 8 8 8 8 8 8 8 6 7 6 5 6 5 5 6 6 4 4 5 5 4 4 3 3 3
8 8 8 7 7 7 6 6 6 6 6 6 7 7 7 7 7 8 8 8 8 8 8 8 8 7 7 6 6 6 6 6 6 6 6 4 4 4 4 4 4 3 4
8 8 7 7 7 6 6 6 6 6 6 6 7 7 7 8 8 8 8 8 8 7 7 8 8 8 8 7 6 7 6 6 6 6 6 5 4 4 5 5 4 4 4
8 8 7 7 6 6 6 5 5 6 6 6 6 7 7 8 7 8 8 8 8 7 7 7 7 6 4 5 5 6 6 6 6 7 7 6 5 4 5 5 5 4 4
7 7 6 6 6 6 5 5 5 6 6 6 6 7 7 6 3 4 6 7 7 7 7 6 6 6 6 5 3 3 4 6 7 7 7 6 6 6 5 5 5 4 4
7 6 6 5 5 5 5 5 5 5 6 6 6 6 6 4 4 5 6 7 7 6 7 7 6 6 7 7 7 8 7 6 7 8 7 7 6 5 6 6 5 6 5
6 6 5 5 5 5 5 4 4 4 5 5 6 6 6 5 5 6 7 8 7 7 7 7 7 7 6 6 7 7 8 8 9 9 7 7 5 4 6 7 7 7 6
5 4 4 5 5 5 5 5 5 5 5 6 6 6 7 6 5 7 8 7 7 7 7 6 6 7 4 5 7 8 8 7 7 6 4 4 2 3 4 6 6 6 6
3 3 3 4 4 5 5 5 5 5 7 6 6 6 7 7 5 6 8 7 7 6 5 6 6 6 5 6 8 8 9 7 6 6 7 8 7 6 7 7 6 6 5
2 3 3 4 4 5 5 5 5 6 6 6 6 7 7 7 6 7 8 7 6 6 5 5 4 6 7 7 8 7 6 5 6 6 6 6 6 5 6 6 5 5 5
2 2 3 4 4 4 4 4 4 5 6 6 6 7 6 6 5 6 8 8 6 6 6 5 3 6 6 6 6 4 4 6 6 6 6 6 6 5 5 5 6 5 5
2 3 3 4 4 3 4 4 4 5 5 5 5 5 5 4 3 6 8 8 8 6 4 2 4 6 6 6 6 7 7 7 6 6 6 6 5 4 4 5 6 7 6
3 4 4 4 4 4 4 4 4 4 5 5 5 5 4 4 4 4 4 5 6 6 4 3 6 7 7 5 6 6 6 5 6 6 5 4 4 4 5 5 5 5 6
3 4 5 4 4 4 4 4 5 4 4 5 5 5 5 5 3 1 3 4 4 3 3 4 4 4 5 5 4 4 5 5 6 6 6 5 5 5 5 5 5 5 6
4 4 4 4 4 4 4 4 2 3 2 3 4 5 4 2 2 2 3 3 4 5 4 5 4 4 5 5 4 4 4 4 4 5 5 5 5 5 5 4 5 5 5
5 4 4 4 4 4 4 4 4 2 2 2 2 2 3 3 3 3 4 3 4 6 5 4 4 4 4 4 4 4 4 4 3 4 4 4 5 5 5 5 5 5 5
5 4 4 4 4 3 3 4 4 3 2 2 2 3 4 4 4 4 5 4 2 4 4 3 4 4 4 4 4 4 4 4 4 4 4 4 4 5 5 5 5 6 6
5 4 3 3 3 2 3 4 3 3 3 2 1 1 3 4 5 5 5 3 4 4 4 4 4 4 4 3 3 3 3 4 4 4 4 4 4 5 5 5 5 6 6
3 2 3 3 3 2 3 3 3 3 2 1 2 1 2 2 2 2 3 3 3 3 3 3 3 3 3 3 3 3 4 4 5 4 4 4 4 5 5 6 5 5 6
3 1 2 3 3 3 3 3 3 2 2 2 2 1 1 3 2 2 2 2 2 2 2 2 2 3 3 3 3 3 4 4 4 4 4 4 4 4 5 5 5 5 5
3 2 2 2 2 2 2 2 2 2 2 2 2 1 2 3 2 1 1 1 1 1 2 2 2 2 2 2 2 3 3 4 3 4 4 4 4 5 5 5 4 4 4
2 2 2 2 2 2 2 2 2 1 1 2 1 1 1 1 1 1 1 1 1 1 1 2 2 2 1 1 2 3 4 3 3 4 4 4 4 4 4 5 5 6 5
2 2 2 2 2 2 2 2 1 1 1 1 1 1 0 1 1 0 1 1 1 1 1 1 1 1 1 1 2 2 2 3 3 3 5 4 4 3 3 4 5 5 5
1 1 1 1 1 1 2 1 1 1 1 1 0 0 1 1 1 1 1 1 1 1 1 1 1 1 1 2 2 1 3 4 3 4 3 4 4 3 4 4 4 4 5
1 1 1 1 1 2 2 2 2 2 1 1 1 1 1 1 2 2 2 2 2 1 1 1 1 1 1 2 0 3 3 2 2 4 4 3 3 3 3 3 4 4 4
Wind_Direction
187 189 191 193 193 198 209 214 216 221 220 222 224 226 228 231 231 229 230 226 224 224 223 221 223 230 229 226 231 233 234 234 243 249 227 206 213 241 213 224 218 208 182
185 184 187 189 190 196 203 209 211 216 221 222 224 226 228 228 226 226 229 229 228 227 225 223 224 220 221 230 230 229 229 228 233 243 238 218 219 225 223 230 227 216 201
181 184 185 190 194 202 205 207 210 216 225 227 225 227 229 229 229 230 230 230 232 233 229 225 225 224 224 222 224 224 225 224 227 236 242 231 230 215 215 221 226 234 225
179 184 187 193 197 203 208 211 216 221 225 231 232 232 232 233 233 234 236 236 235 236 235 231 227 224 225 223 222 224 226 227 224 232 238 232 224 212 219 223 222 221 233
181 187 190 192 194 201 208 214 219 223 227 231 238 239 237 234 234 234 236 237 239 239 234 231 228 220 226 231 231 221 221 228 228 230 235 235 227 216 226 230 235 228 227
184 186 185 189 193 201 209 213 218 224 230 231 236 241 243 242 215 234 244 237 237 237 235 231 219 206 198 198 222 246 248 236 238 238 239 239 235 229 232 239 238 237 237
185 187 189 193 198 205 212 214 220 227 234 238 241 242 243 242 210 217 232 233 233 235 235 235 233 217 208 215 207 210 225 238 249 253 250 250 242 233 237 237 235 244 250
183 187 192 200 206 212 215 218 225 232 238 245 248 249 247 238 208 213 227 232 238 235 231 229 230 227 219 216 220 222 226 225 228 235 243 249 248 241 230 238 242 236 236
181 190 199 207 212 217 223 227 233 241 245 247 249 251 251 244 217 212 224 233 230 230 230 228 227 227 203 219 225 228 231 231 217 215 239 253 272 249 249 243 234 235 235
198 206 210 214 219 226 233 235 236 239 240 240 243 248 252 252 227 214 220 232 227 226 223 223 222 222 196 208 225 230 232 230 224 212 214 222 226 214 211 230 239 242 241
215 221 218 216 224 232 240 244 244 242 242 241 241 243 243 244 220 212 219 232 231 229 228 229 215 173 192 206 231 234 233 237 229 227 223 221 220 217 217 220 237 250 253
254 243 239 238 242 238 244 249 246 243 239 238 237 242 240 232 222 213 213 223 239 234 234 233 197 159 184 205 221 219 217 232 230 227 228 226 223 221 217 218 225 237 252
276 257 256 252 249 244 241 241 240 237 242 243 242 243 240 233 214 194 203 209 217 226 233 198 163 172 189 203 203 209 218 228 230 231 233 231 232 226 219 212 212 217 226
261 255 250 246 244 243 248 244 247 249 250 249 248 248 245 234 236 226 218 208 201 212 219 176 171 191 212 213 202 213 227 233 233 236 241 235 227 219 222 223 222 216 222
263 256 252 244 243 245 249 260 257 262 269 264 259 255 252 248 239 245 244 227 222 210 205 213 211 203 208 213 219 220 225 224 230 234 232 229 228 228 225 223 227 227 228
261 261 257 252 243 242 245 255 254 261 255 258 271 272 266 246 196 200 218 219 203 186 203 217 217 214 219 222 226 223 227 234 238 241 238 231 228 229 226 225 228 229 230
267 265 261 256 248 246 252 259 263 248 198 204 218 219 223 209 199 201 200 193 191 182 208 223 226 225 228 230 231 232 229 229 233 237 239 238 237 232 226 223 223 229 233
272 267 261 264 259 249 255 260 262 267 263 247 194 178 175 168 172 179 167 148 174 197 219 225 232 235 234 235 235 236 236 229 228 235 235 240 241 237 232 232 230 232 232
285 283 276 277 272 267 268 268 271 271 272 257 222 153 164 165 164 178 177 196 213 215 221 225 232 239 239 235 241 240 240 232 228 230 229 236 239 234 232 234 232 225 238
280 292 291 284 277 280 276 279 285 281 278 267 243 235 185 174 183 179 199 216 226 221 220 224 232 244 249 242 241 244 242 237 227 224 228 229 233 235 231 232 238 235 234
294 284 253 278 286 286 281 282 289 290 283 276 277 282 210 224 217 202 200 215 225 231 232 233 233 233 242 240 243 246 249 246 235 228 229 233 234 232 232 230 231 240 242
295 284 273 276 284 289 292 290 289 283 273 265 268 185 172 232 236 209 186 198 215 225 227 236 244 247 255 259 253 249 245 247 241 232 235 238 234 235 237 238 237 236 241
279 271 271 272 267 241 253 264 266 265 280 274 261 246 194 231 233 205 198 206 214 224 231 229 240 250 247 246 256 260 259 257 257 254 245 239 238 238 239 235 235 237 236
272 274 280 284 288 282 271 261 254 245 246 273 299 291 239 210 255 243 227 215 222 229 224 222 228 242 249 259 251 255 278 302 286 257 252 253 251 248 245 243 241 238 238
260 259 272 289 292 299 299 293 281 263 252 255 238 254 258 235 243 246 235 219 219 215 197 196 189 183 197 245 273 325 39 24 344 307 253 252 254 260 260 256 254 251 247
284 282 281 286 295 297 295 298 296 290 285 278 265 265 264 251 243 238 229 215 208 200 188 181 171 178 214 232 352 60 69 47 345 311 279 257 255 258 265 261 263 262 259
Height
1518 1521 1523 1524 1525 1527 1528 1529 1529 1530 1530 1530 1531 1531 1531 1531 1531 1531 1532 1532 1532 1533 1533 1534 1534 1535 1536 1537 1538 1538 1538 1539 1539 1540 1540 1539 1538 1538 1538 1537 1537 1537 1536
1515 1517 1519 1521 1522 1523 1524 1525 1526 1526 1527 1527 1527 1527 1527 1527 1527 1527 1528 1529 1529 1529 1529 1530 1530 1531 1532 1533 1534 1535 1535 1535 1536 1536 1537 1536 1535 1535 1534 1534 1535 1534 1533
1512 1514 1516 1517 1519 1520 1521 1522 1523 1523 1523 1524 1524 1524 1524 1524 1524 1524 1524 1525 1525 1525 1526 1526 1526 1527 1528 1529 1530 1531 1531 1532 1532 1533 1533 1533 1533 1532 1531 1531 1531 1531 1530
1509 1511 1513 1514 1515 1517 1518 1518 1519 1520 1520 1520 1520 1520 1520 1520 1520 1520 1520 1521 1521 1521 1521 1522 1522 1523 1524 1525 1526 1526 1527 1528 1528 1529 1529 1529 1529 1529 1528 1528 1528 1527 1527
1506 1508 1509 1511 1512 1514 1514 1515 1515 1516 1516 1516 1517 1516 1516 1516 1517 1517 1517 1517 1517 1517 1518 1518 1518 1519 1520 1521 1522 1522 1523 1524 1524 1525 1525 1525 1526 1525 1525 1525 1525 1524 1523
1503 1505 1506 1507 1509 1510 1511 1511 1512 1512 1513 1513 1513 1512 1512 1513 1512 1513 1513 1513 1513 1513 1514 1515 1515 1515 1516 1517 1517 1518 1519 1520 1520 1520 1521 1521 1521 1521 1521 1521 1521 1520 1520
1500 1502 1503 1504 1505 1506 1507 1508 1508 1508 1509 1509 1509 1508 1508 1508 1508 1508 1509 1509 1509 1509 1510 1511 1512 1512 1512 1513 1513 1513 1514 1515 1516 1516 1517 1516 1516 1516 1516 1516 1516 1516 1516
1498 1499 1500 1501 1502 1503 1503 1503 1504 1504 1505 1505 1505 1505 1504 1504 1504 1504 1504 1505 1505 1505 1506 1506 1507 1507 1508 1508 1509 1509 1510 1510 1511 1511 1511 1512 1512 1512 1512 1512 1513 1513 1512
1494 1495 1496 1497 1498 1498 1499 1499 1499 1500 1500 1500 1501 1501 1500 1500 1500 1500 1500 1500 1500 1501 1502 1502 1503 1503 1503 1504 1505 1505 1506 1506 1506 1506 1507 1507 1507 1507 1508 1508 1509 1509 1509
1491 1492 1493 1494 1494 1495 1495 1495 1495 1495 1496 1496 1496 1496 1496 1495 1495 1495 1495 1496 1496 1497 1497 1498 1498 1498 1499 1499 1500 1501 1502 1502 1503 1502 1502 1502 1503 1503 1503 1503 1504 1505 1505
1489 1489 1490 1490 1490 1491 1491 1491 1491 1491 1491 1490 1490 1490 1491 1491 1490 1490 1491 1491 1492 1492 1493 1493 1494 1494 1494 1495 1496 1496 1496 1497 1498 1498 1499 1498 1498 1499 1499 1499 1499 1500 1501
1486 1486 1487 1487 1488 1488 1487 1486 1486 1486 1486 1486 1486 1486 1486 1486 1485 1486 1486 1487 1487 1488 1488 1489 1489 1489 1490 1490 1491 1491 1492 1493 1494 1494 1495 1495 1494 1495 1495 1495 1495 1495 1496
1483 1483 1484 1484 1484 1484 1483 1482 1482 1482 1482 1482 1482 1482 1482 1481 1481 1481 1482 1482 1482 1483 1484 1484 1484 1485 1485 1486 1487 1487 1488 1489 1489 1490 1490 1490 1490 1491 1491 1491 1490 1491 1491
1480 1481 1481 1481 1480 1480 1480 1479 1479 1479 1478 1478 1478 1477 1477 1477 1476 1476 1477 1477 1478 1478 1479 1479 1480 1480 1481 1482 1482 1483 1484 1484 1484 1485 1485 1485 1486 1486 1487 1487 1488 1488 1488
1477 1478 1478 1478 1477 1477 1476 1476 1475 1475 1474 1474 1473 1473 1472 1472 1472 1472 1473 1473 1474 1474 1474 1475 1475 1476 1477 1478 1478 1479 1479 1480 1480 1480 1481 1481 1482 1482 1482 1483 1483 1484 1484
1474 1474 1474 1475 1474 1473 1473 1472 1471 1471 1470 1469 1468 1468 1467 1467 1467 1468 1468 1469 1470 1470 1471 1471 1472 1473 1473 1474 1474 1475 1475 1475 1475 1476 1476 1477 1477 1478 1479 1479 1479 1480 1480
1471 1470 1470 1470 1470 1469 1469 1469 1468 1467 1466 1465 1464 1464 1463 1463 1464 1464 1464 1465 1466 1466 1467 1468 1468 1469 1469 1470 1470 1471 1471 1471 1471 1471 1472 1472 1473 1474 1474 1475 1475 1476 1476
1468 1467 1466 1466 1465 1465 1466 1466 1465 1464 1463 1462 1461 1461 1460 1460 1460 1460 1461 1461 1461 1462 1463 1464 1465 1465 1466 1466 1466 1467 1467 1467 1467 1467 1468 1468 1469 1469 1470 1470 1471 1471 1472
1464 1464 1463 1463 1463 1463 1463 1463 1462 1461 1460 1459 1459 1458 1458 1458 1458 1458 1458 1458 1459 1459 1460 1460 1461 1462 1462 1462 1462 1462 1462 1462 1462 1463 1463 1464 1464 1465 1465 1466 1467 1467 1468
1461 1460 1460 1460 1460 1460 1460 1460 1459 1458 1457 1456 1456 1456 1456 1456 1455 1455 1455 1456 1457 1457 1457 1457 1458 1458 1459 1459 1459 1459 1458 1458 1458 1458 1459 1460 1460 1460 1461 1462 1463 1463 1464
1458 1458 1457 1458 1458 1458 1458 1457 1457 1456 1455 1455 1454 1454 1454 1454 1454 1454 1454 1454 1454 1455 1455 1455 1455 1455 1455 1455 1455 1455 1455 1454 1454 1455 1455 1456 1456 1457 1457 1458 1459 1459 1460
1456 1456 1456 1455 1456 1456 1456 1455 1455 1455 1454 1453 1453 1453 1452 1453 1453 1452 1452 1452 1452 1452 1452 1452 1452 1452 1452 1452 1452 1452 1452 1451 1451 1451 1452 1452 1453 1453 1453 1454 1455 1455 1456
1454 1454 1454 1454 1453 1453 1453 1453 1453 1453 1453 1452 1452 1452 1451 1451 1451 1451 1450 1451 1451 1450 1450 1450 1450 1450 1449 1449 1449 1449 1449 1448 1448 1448 1449 1449 1450 1450 1450 1450 1450 1451 1452
1454 1453 1453 1453 1452 1452 1451 1451 1452 1452 1451 1451 1451 1450 1450 1449 1449 1449 1449 1448 1448 1448 1448 1448 1447 1447 1447 1446 1446 1446 1446 1445 1445 1445 1446 1446 1446 1446 1446 1446 1447 1447 1448
1452 1452 1452 1452 1451 1451 1451 1450 1450 1450 1450 1450 1449 1449 1449 1448 1448 1448 1447 1447 1447 1446 1446 1446 1445 1445 1444 1444 1444 1444 1443 1442 1442 1443 1443 1443 1443 1443 1443 1444 1444 1444 1445
1451 1451 1451 1450 1450 1450 1449 1449 1449 1449 1448 1448 1448 1447 1447 1447 1446 1446 1446 1445 1445 1444 1444 1444 1443 1443 1442 1442 1442 1441 1440 1440 1439 1440 1440 1441 1441 1441 1441 1441 1441 1441 1441